CZ-11 R/B

基本信息
目录编号:
41847
目录名称:
CZ-11 R/B
国际标识:
2016-066G
轨道中心:
EARTH
物体状态:
在轨
发射日期:
2016-11-09 UTC
国别:
中国 (CN)
轨道信息
数据来源: 国际轨道数据
星历时间: 2026-07-14T02:23:12+0800
半长轴: 7120.924km
偏心率: 0.034233
轨道倾角: 98.381°
近地点辐角: 49.089°
升交点赤经: 270.198°
平近点角: 313.942°
近地点: 499.016km
远地点: 986.558km
周期: 99.670分钟
每日圈数: 14.447685
详细信息
发射场:
JSC
轨道高度:
LEO
数据来源:
AOE Integration Group
参考系:
TEME
时间系统:
UTC
历元类型:
SGP4
2D轨道图
3D轨道图
轨道高度分析图
轨道倾角分析图
轨道综合分析图
查看轨道综合分析图